Home   Weather   Västerås   Past weeks

Flag for Sweden Past Weather in Västerås, Sweden — Yesterday and Last 2 Weeks

Now
41 °F

Clear.


Feels Like: 35 °F
Forecast: 23 / 32 °F
Wind: 9 mph from Northwest

Location: Vasteras / Hasslo

Current Time: Dec 5, 2016 at 3:51:58 pm

Latest Report: Dec 5, 2016 at 3:20 pm


Visibility: 10 mi

Pressure: 29.92 "Hg

Humidity: 57%

Dew Point: 27 °F

Location of VästeråsLocation

Past Weather in Västerås — Graph

°F

Västerås Temperature Yesterday

Maximum temperature yesterday: 37 °F (at 11:50 pm)
Minimum temperature yesterday: 16 °F (at 12:20 am)
Average temperature yesterday: 29 °F

High & Low Weather Summary for the Past Weeks

 TemperatureHumidityPressure
High48 °F (Nov 21, 2:20 pm)100% (Nov 22, 8:50 am)30.27 "Hg (Nov 22, 8:50 am)
Low12 °F (Dec 3, 10:20 pm)41% (Nov 27, 3:20 pm)29.39 "Hg (Nov 26, 5:20 pm)
Average36 °F78%29.88 "Hg
* Reported Nov 20 2:20 pm — Dec 5 2:20 pm, Västerås, Weather by CustomWeather, © 2016

Note: Actual official high and low records may vary slightly from our data, if they occured in-between our weather recording intervals... More about our weather records

Advertising

Västerås Weather History for the Previous 24 Hours

Scroll right to see more
 ConditionsComfort  
Time TempWeatherWind HumidityBarometerVisibility
2:20 pm
Mon, Dec 5
43 °FPassing clouds.12 mph57%29.89 "HgN/A
1:50 pm45 °FPassing clouds.12 mph53%29.86 "HgN/A
1:20 pm43 °FPassing clouds.9 mph61%29.86 "HgN/A
12:50 pm45 °FSunny.9 mph61%29.86 "Hg10 mi
12:20 pm43 °FSunny.9 mph66%29.86 "Hg10 mi
11:50 am45 °FPassing clouds.8 mph61%29.86 "HgN/A
11:20 am45 °FSunny.8 mph61%29.83 "Hg10 mi
10:50 am45 °FPassing clouds.9 mph61%29.83 "HgN/A
10:20 am43 °FPassing clouds.8 mph66%29.83 "HgN/A
9:50 am43 °FPassing clouds.8 mph66%29.83 "HgN/A
9:20 am41 °FPassing clouds.9 mph70%29.80 "HgN/A
8:50 am41 °FPassing clouds.9 mph70%29.83 "HgN/A
8:20 am41 °FQuite cool.8 mph70%29.80 "HgN/A
7:50 am41 °FQuite cool.10 mph70%29.80 "HgN/A
7:20 am41 °FQuite cool.9 mph70%29.80 "HgN/A
6:50 am39 °FChilly.12 mph75%29.80 "HgN/A
6:20 am39 °FChilly.12 mph75%29.80 "HgN/A
5:50 am39 °FChilly.9 mph75%29.80 "HgN/A
5:20 am39 °FChilly.12 mph75%29.80 "HgN/A
4:50 am39 °FPassing clouds.10 mph75%29.80 "HgN/A
4:20 am39 °FPassing clouds.9 mph75%29.80 "HgN/A
3:50 am37 °FPassing clouds.10 mph81%29.83 "HgN/A
3:20 am37 °FChilly.10 mph81%29.83 "HgN/A
2:50 am37 °FChilly.12 mph81%29.83 "HgN/A
2:20 am37 °FPassing clouds.12 mph81%29.83 "HgN/A
1:50 am37 °FPassing clouds.13 mph81%29.86 "HgN/A
1:20 am37 °FPassing clouds.12 mph81%29.86 "HgN/A
12:50 am37 °FChilly.9 mph81%29.89 "HgN/A
12:20 am37 °FChilly.12 mph81%29.89 "HgN/A
11:50 pm
Sun, Dec 4
37 °FChilly.9 mph81%29.89 "HgN/A
11:20 pm36 °FChilly.9 mph87%29.92 "HgN/A
10:50 pm36 °FChilly.12 mph87%29.92 "HgN/A
10:20 pm36 °FChilly.12 mph87%29.92 "HgN/A
9:50 pm36 °FPassing clouds.13 mph87%29.92 "HgN/A
9:20 pm36 °FChilly.12 mph87%29.95 "HgN/A
8:50 pm36 °FPassing clouds.13 mph87%29.95 "HgN/A
8:20 pm36 °FPassing clouds.12 mph87%29.95 "HgN/A
7:50 pm36 °FPartly cloudy.12 mph87%29.95 "HgN/A
7:20 pm36 °FMostly cloudy.10 mph87%29.98 "HgN/A
6:50 pm34 °FLow clouds.12 mph93%29.98 "HgN/A
6:20 pm34 °FLow clouds.13 mph93%29.98 "HgN/A
5:50 pm34 °FFog.12 mph93%30.01 "Hg6 mi
5:20 pm34 °FFog.12 mph93%30.01 "Hg4 mi
4:50 pm34 °FFog.12 mph93%30.01 "Hg4 mi
4:20 pm34 °FFog.12 mph93%30.01 "Hg5 mi
3:50 pm32 °FIce fog.10 mph100%30.04 "Hg4 mi
3:20 pm32 °FIce fog.10 mph93%30.04 "Hg3 mi
Weather by CustomWeather, © 2016

See weather overviewHow to use our weather pages